Content
SEND FEEDBACK

Daily
Averages
Monthly
Summary
France

CRETEIL, FRANCE


Home > Europe > France
Elevation: 164 feet     Latitude: 48 48N     Longitude: 002 30E

WEATHER
 
SELECT A DAY
Number of Records: 320,186;   Date Range: 7/1/96 - 9/15/14
 
SHARE

PRINT THIS DATA

[ ← Previous Day ]
WEATHER ALMANAC - MARCH 1, 2013
[ Next Day → ]
[ °C ]   °F
Weather ElementAverageHighLow
Temperature36.6 °F39.2 °F (10:30 pm)35.6 °F (12:30 am)
Dewpoint31.5 °F33 °F (7:00 am)30 °F (7:00 pm)
Humidity81.7 %87 % (12:30 am)71 % (7:00 pm)
Barometer30.25 in30.29 in (1:00 pm)30.24 in (12:30 am)
Wind Speed8.7 mph13.8 mph (5:30 pm)
Weather ElementAverage
Visibility4.6 mi
Wind DirectionNNE (37.6 °)

Weather ElementTotal
Precipitation---
Heating Degree Days27.6 (Base 65)
Averaged from 51 records on March 1, 2013
WEATHER CONDITIONS BREAKOUT
WIND DIRECTION BREAKOUT
WEATHER BY HOUR - MARCH 1, 2013
[ °C ]   °F
Local TimeTemperatureDewpointHumidityBarometerVisibilityWind DirectionWind SpeedGust SpeedPrecipitationEventsConditions
12:30 AM35.6 °F32.0 °F87 %30.24 in6.2 miNNE (20°)6.9 mphOvercast
1:00 AM36.0 °F32.0 °F78 %30.28 in6.0 miNNE (20°)5.8 mphOvercast
1:00 AM35.6 °F32.0 °F87 %30.24 in6.2 miNNE (20°)5.8 mphOvercast
1:30 AM35.6 °F32.0 °F87 %30.24 in6.2 miNNE (20°)5.8 mphOvercast
2:00 AM35.6 °F32.0 °F87 %30.24 in6.2 miNNE (30°)6.9 mphOvercast
2:30 AM35.6 °F32.0 °F87 %30.24 in6.2 miNNE (30°)6.9 mphOvercast
3:00 AM35.6 °F32.0 °F87 %30.24 in6.2 miNNE (30°)6.9 mphOvercast
3:30 AM35.6 °F32.0 °F87 %30.24 in6.2 miNE (40°)6.9 mphOvercast
4:00 AM35.6 °F32.0 °F87 %30.24 in6.2 miNE (40°)5.8 mphOvercast
4:30 AM35.6 °F32.0 °F87 %30.24 in6.2 miNNE (30°)6.9 mphOvercast
5:00 AM35.6 °F32.0 °F87 %30.24 in6.2 miNE (40°)5.8 mphOvercast
5:30 AM35.6 °F32.0 °F87 %30.24 in5.6 miNNE (30°)6.9 mphOvercast
6:00 AM35.6 °F32.0 °F87 %30.24 in5.6 miNNE (30°)6.9 mphOvercast
6:30 AM35.6 °F32.0 °F87 %30.24 in5.6 miNE (40°)6.9 mphOvercast
7:00 AM36.0 °F33.0 °F82 %30.26 in5.0 miNE (40°)8.1 mphOvercast
7:00 AM35.6 °F32.0 °F87 %30.24 in5.0 miNE (40°)8.1 mphOvercast
7:30 AM35.6 °F32.0 °F87 %30.24 in3.7 miNE (40°)8.1 mphOvercast
8:00 AM35.6 °F32.0 °F87 %30.24 in2.8 miNE (40°)6.9 mphOvercast
8:30 AM35.6 °F32.0 °F87 %30.24 in2.8 miNE (40°)6.9 mphOvercast
9:00 AM37.4 °F32.0 °F81 %30.24 in3.7 miNE (40°)9.2 mphOvercast
9:30 AM37.4 °F32.0 °F81 %30.24 in3.7 miNE (40°)9.2 mphOvercast
10:00 AM37.4 °F32.0 °F81 %30.24 in3.7 miNE (40°)8.1 mphOvercast
10:30 AM37.4 °F32.0 °F81 %30.27 in3.7 miNE (40°)8.1 mphOvercast
11:00 AM37.4 °F32.0 °F81 %30.27 in3.7 miNE (40°)8.1 mphOvercast
11:30 AM37.4 °F32.0 °F81 %30.27 in3.7 miNE (40°)8.1 mphOvercast
12:00 PM37.4 °F32.0 °F81 %30.27 in3.7 miNE (40°)10.4 mphOvercast
12:30 PM37.4 °F32.0 °F81 %30.27 in3.7 miNNE (30°)10.4 mphOvercast
1:00 PM37.0 °F31.0 °F73 %30.29 in3.0 miNE (40°)9.2 mphMist
1:00 PM37.4 °F32.0 °F81 %30.27 in2.8 miNE (40°)9.2 mphOvercast
1:30 PM37.4 °F32.0 °F81 %30.24 in2.5 miNNE (20°)10.4 mphOvercast
2:00 PM37.4 °F32.0 °F81 %30.24 in2.5 miNNE (30°)10.4 mphOvercast
2:30 PM37.4 °F30.2 °F75 %30.24 in2.5 miNE (50°)10.4 mphOvercast
3:00 PM37.4 °F30.2 °F75 %30.24 in2.5 miNNE (30°)10.4 mphOvercast
3:30 PM37.4 °F30.2 °F75 %30.24 in3.7 miNNE (30°)11.5 mphOvercast
4:00 PM35.6 °F30.2 °F81 %30.24 in3.7 miNE (40°)11.5 mphOvercast
4:30 PM35.6 °F30.2 °F81 %30.24 in3.7 miNNE (30°)11.5 mphOvercast
5:00 PM35.6 °F30.2 °F81 %30.24 in4.3 miNNE (30°)12.7 mphOvercast
5:30 PM35.6 °F30.2 °F81 %30.24 in5.0 miNE (40°)13.8 mphOvercast
6:00 PM35.6 °F30.2 °F81 %30.24 in5.0 miNE (50°)11.5 mphOvercast
6:30 PM37.4 °F30.2 °F75 %30.24 in4.3 miNE (50°)8.1 mphOvercast
7:00 PM36.0 °F30.0 °F71 %30.28 in4.0 miNE (50°)6.9 mphOvercast
7:00 PM37.4 °F30.2 °F75 %30.24 in3.7 miNE (50°)6.9 mphOvercast
7:30 PM37.4 °F30.2 °F75 %30.24 in3.7 miNE (40°)6.9 mphOvercast
8:00 PM37.4 °F30.2 °F75 %30.24 in3.7 miNE (40°)9.2 mphOvercast
8:30 PM37.4 °F32.0 °F81 %30.24 in5.0 miNE (40°)9.2 mphOvercast
9:00 PM37.4 °F32.0 °F81 %30.24 in5.0 miNE (50°)8.1 mphOvercast
9:30 PM37.4 °F32.0 °F81 %30.27 in5.0 miNE (50°)10.4 mphOvercast
10:00 PM37.4 °F32.0 °F81 %30.27 in6.2 miNE (50°)11.5 mphOvercast
10:30 PM39.2 °F32.0 °F75 %30.27 in6.2 miNE (50°)12.7 mphOvercast
11:00 PM37.4 °F32.0 °F81 %30.27 in6.2 miNE (50°)11.5 mphOvercast
11:30 PM37.4 °F32.0 °F81 %30.27 in6.2 miNE (40°)11.5 mphOvercast
Hourly data recorded from LFPO, located miles away from Creteil, France







STORIES FROM OUR PARTNERS